• In Deutschland
  • Länderverzeichnis
  • Für 7 Tage
  • Wassertemperatur
  • Satellitenkarten
  • Wetterkarte
  • Widgets
  • user-avatar
    Anmelden

    Stündliche Wetter Engelskirchen

    Heute, 21 Juli, Samstag

    Zeit Temperatur Niederschläge Wind Luftdruck Luftfeuchtigkeit
    00:00 +20°C° 0 mm 1 m/S 738 mmHg 61%
    01:00 +19°C° 0,1 mm 1 m/S 737 mmHg 64%
    02:00 +19°C° 0,1 mm 1 m/S 737 mmHg 68%
    03:00 +18°C° 0,1 mm 1 m/S 737 mmHg 71%
    04:00 +19°C° 0 mm 1 m/S 737 mmHg 70%
    05:00 +20°C° 0 mm 1 m/S 737 mmHg 69%
    06:00 +21°C° 0 mm 1 m/S 738 mmHg 68%
    07:00 +23°C° 0 mm 1 m/S 738 mmHg 61%
    08:00 +25°C° 0 mm 1 m/S 738 mmHg 54%
    09:00 +26°C° 0 mm 1 m/S 738 mmHg 47%
    10:00 +28°C° 0 mm 1 m/S 738 mmHg 44%
    11:00 +29°C° 0 mm 1 m/S 738 mmHg 41%
    12:00 +30°C° 0 mm 1 m/S 738 mmHg 39%
    13:00 +29°C° 0,1 mm 1 m/S 738 mmHg 41%
    14:00 +29°C° 0,1 mm 1 m/S 738 mmHg 43%
    15:00 +28°C° 0,1 mm 1 m/S 738 mmHg 46%
    16:00 +28°C° 0,1 mm 1 m/S 738 mmHg 50%
    17:00 +27°C° 0,1 mm 1 m/S 738 mmHg 54%
    18:00 +26°C° 0,1 mm 1 m/S 738 mmHg 58%
    19:00 +25°C° 0 mm 1 m/S 738 mmHg 61%
    20:00 +23°C° 0 mm 1 m/S 738 mmHg 64%
    21:00 +22°C° 0 mm 1 m/S 738 mmHg 67%
    22:00 +21°C° 0 mm 1 m/S 738 mmHg 71%
    23:00 +20°C° 0 mm 1 m/S 739 mmHg 74%

    Morgen, 22 Juli, Sonntag

    Zeit Temperatur Niederschläge Wind Luftdruck Luftfeuchtigkeit
    00:00 +20°C° 0 mm 1 m/S 739 mmHg 77%
    01:00 +19°C° 0 mm 1 m/S 739 mmHg 80%
    02:00 +19°C° 0 mm 1 m/S 739 mmHg 83%
    03:00 +18°C° 0 mm 1 m/S 739 mmHg 86%
    04:00 +18°C° 0 mm 2 m/S 739 mmHg 84%
    05:00 +18°C° 0 mm 2 m/S 739 mmHg 83%
    06:00 +19°C° 0 mm 2 m/S 740 mmHg 82%
    07:00 +20°C° 0,1 mm 2 m/S 740 mmHg 75%
    08:00 +23°C° 0,1 mm 2 m/S 740 mmHg 69%
    09:00 +25°C° 0,1 mm 3 m/S 740 mmHg 62%
    10:00 +26°C° 0,1 mm 3 m/S 740 mmHg 56%
    11:00 +27°C° 0,1 mm 3 m/S 740 mmHg 50%
    12:00 +28°C° 0,1 mm 3 m/S 740 mmHg 44%
    13:00 +28°C° 0 mm 3 m/S 740 mmHg 44%
    14:00 +28°C° 0 mm 3 m/S 740 mmHg 43%
    15:00 +28°C° 0 mm 3 m/S 740 mmHg 42%
    16:00 +27°C° 0 mm 3 m/S 740 mmHg 47%
    17:00 +26°C° 0 mm 3 m/S 740 mmHg 51%
    18:00 +25°C° 0 mm 2 m/S 740 mmHg 56%
    19:00 +24°C° 0 mm 2 m/S 740 mmHg 60%
    20:00 +22°C° 0 mm 1 m/S 741 mmHg 65%
    21:00 +21°C° 0 mm 1 m/S 741 mmHg 70%
    22:00 +20°C° 0 mm 1 m/S 741 mmHg 72%
    23:00 +19°C° 0 mm 1 m/S 741 mmHg 74%

    übermorgen, 23 Juli, Montag

    Zeit Temperatur Niederschläge Wind Luftdruck Luftfeuchtigkeit
    00:00 +19°C° 0 mm 1 m/S 741 mmHg 77%
    01:00 +18°C° 0 mm 1 m/S 741 mmHg 78%
    02:00 +18°C° 0 mm 1 m/S 741 mmHg 79%
    03:00 +18°C° 0 mm 1 m/S 741 mmHg 80%
    04:00 +18°C° 0 mm 1 m/S 742 mmHg 77%
    05:00 +19°C° 0 mm 1 m/S 742 mmHg 74%
    06:00 +20°C° 0 mm 1 m/S 742 mmHg 71%
    07:00 +22°C° 0 mm 1 m/S 742 mmHg 65%
    08:00 +23°C° 0 mm 1 m/S 742 mmHg 58%
    09:00 +25°C° 0 mm 2 m/S 742 mmHg 52%
    10:00 +26°C° 0 mm 2 m/S 742 mmHg 50%
    11:00 +27°C° 0 mm 2 m/S 742 mmHg 48%
    12:00 +28°C° 0 mm 2 m/S 742 mmHg 45%
    13:00 +28°C° 0 mm 2 m/S 742 mmHg 47%
    14:00 +28°C° 0 mm 2 m/S 742 mmHg 49%
    15:00 +28°C° 0 mm 2 m/S 742 mmHg 51%
    16:00 +27°C° 0 mm 2 m/S 742 mmHg 54%
    17:00 +27°C° 0 mm 1 m/S 742 mmHg 58%
    18:00 +26°C° 0 mm 1 m/S 742 mmHg 62%
    19:00 +25°C° 0 mm 1 m/S 742 mmHg 67%
    20:00 +23°C° 0 mm 1 m/S 742 mmHg 72%
    21:00 +22°C° 0 mm 1 m/S 742 mmHg 77%
    22:00 +21°C° 0 mm 1 m/S 742 mmHg 78%
    23:00 +21°C° 0 mm 1 m/S 742 mmHg 80%

    24 Juli, Dienstag

    Zeit Temperatur Niederschläge Wind Luftdruck Luftfeuchtigkeit
    00:00 +20°C° 0 mm 1 m/S 742 mmHg 82%
    01:00 +20°C° 0 mm 1 m/S 742 mmHg 83%
    02:00 +19°C° 0 mm 1 m/S 742 mmHg 85%
    03:00 +19°C° 0 mm 1 m/S 741 mmHg 86%
    04:00 +20°C° 0 mm 1 m/S 742 mmHg 82%
    05:00 +21°C° 0 mm 1 m/S 742 mmHg 78%
    06:00 +20°C° 0 mm 0 m/S 742 mmHg 74%
    07:00 +24°C° 0 mm 1 m/S 742 mmHg 67%
    08:00 +26°C° 0 mm 1 m/S 742 mmHg 59%
    09:00 +28°C° 0 mm 1 m/S 742 mmHg 52%
    10:00 +29°C° 0 mm 1 m/S 741 mmHg 49%
    11:00 +30°C° 0 mm 1 m/S 741 mmHg 46%
    12:00 +31°C° 0 mm 1 m/S 741 mmHg 43%
    13:00 +31°C° 0 mm 1 m/S 741 mmHg 43%
    14:00 +31°C° 0 mm 1 m/S 740 mmHg 44%
    15:00 +31°C° 0 mm 1 m/S 740 mmHg 44%
    16:00 +30°C° 0 mm 1 m/S 740 mmHg 48%
    17:00 +29°C° 0 mm 1 m/S 740 mmHg 52%
    18:00 +28°C° 0 mm 1 m/S 740 mmHg 57%
    19:00 +27°C° 0 mm 1 m/S 740 mmHg 60%
    20:00 +25°C° 0 mm 1 m/S 740 mmHg 64%
    21:00 +24°C° 0 mm 1 m/S 740 mmHg 68%
    22:00 +23°C° 0 mm 1 m/S 740 mmHg 71%
    23:00 +23°C° 0 mm 1 m/S 740 mmHg 73%

    25 Juli, Mittwoch

    Zeit Temperatur Niederschläge Wind Luftdruck Luftfeuchtigkeit
    00:00 +22°C° 0 mm 1 m/S 740 mmHg 75%
    01:00 +22°C° 0 mm 1 m/S 740 mmHg 77%
    02:00 +21°C° 0 mm 1 m/S 740 mmHg 78%
    03:00 +21°C° 0 mm 1 m/S 740 mmHg 79%
    04:00 +22°C° 0 mm 1 m/S 740 mmHg 76%
    05:00 +23°C° 0 mm 1 m/S 741 mmHg 74%
    06:00 +24°C° 0 mm 1 m/S 741 mmHg 71%
    07:00 +26°C° 0 mm 1 m/S 741 mmHg 64%
    08:00 +27°C° 0 mm 1 m/S 741 mmHg 57%
    09:00 +29°C° 0 mm 2 m/S 741 mmHg 51%
    10:00 +30°C° 0,1 mm 2 m/S 741 mmHg 48%
    11:00 +31°C° 0,1 mm 2 m/S 740 mmHg 44%
    12:00 +32°C° 0,1 mm 2 m/S 740 mmHg 41%
    13:00 +32°C° 0,1 mm 1 m/S 740 mmHg 42%
    14:00 +31°C° 0,1 mm 1 m/S 740 mmHg 43%
    15:00 +31°C° 0,1 mm 1 m/S 740 mmHg 45%
    16:00 +31°C° 0 mm 1 m/S 740 mmHg 48%
    17:00 +30°C° 0 mm 1 m/S 740 mmHg 52%
    18:00 +29°C° 0 mm 1 m/S 740 mmHg 55%
    19:00 +28°C° 0 mm 1 m/S 740 mmHg 58%
    20:00 +26°C° 0 mm 1 m/S 741 mmHg 61%
    21:00 +25°C° 0 mm 1 m/S 741 mmHg 64%
    22:00 +24°C° 0 mm 1 m/S 741 mmHg 68%
    23:00 +24°C° 0 mm 1 m/S 741 mmHg 71%

    26 Juli, Donnerstag

    Zeit Temperatur Niederschläge Wind Luftdruck Luftfeuchtigkeit
    00:00 +23°C° 0 mm 1 m/S 741 mmHg 74%
    01:00 +22°C° 0,1 mm 1 m/S 741 mmHg 77%
    02:00 +22°C° 0,1 mm 1 m/S 741 mmHg 81%
    03:00 +21°C° 0,1 mm 1 m/S 742 mmHg 84%
    04:00 +22°C° 0 mm 1 m/S 742 mmHg 82%
    05:00 +23°C° 0 mm 1 m/S 742 mmHg 80%
    06:00 +23°C° 0 mm 1 m/S 742 mmHg 79%
    07:00 +25°C° 0,2 mm 1 m/S 742 mmHg 74%
    08:00 +26°C° 0,2 mm 1 m/S 742 mmHg 69%
    09:00 +28°C° 0,2 mm 1 m/S 743 mmHg 64%
    10:00 +29°C° 0,7 mm 1 m/S 742 mmHg 61%
    11:00 +30°C° 0,7 mm 1 m/S 742 mmHg 58%
    12:00 +31°C° 0,7 mm 1 m/S 742 mmHg 55%
    13:00 +31°C° 0,2 mm 1 m/S 742 mmHg 52%
    14:00 +31°C° 0,2 mm 2 m/S 742 mmHg 49%
    15:00 +32°C° 0,2 mm 2 m/S 742 mmHg 47%
    16:00 +31°C° 0 mm 2 m/S 742 mmHg 51%
    17:00 +30°C° 0 mm 2 m/S 742 mmHg 54%
    18:00 +29°C° 0 mm 2 m/S 742 mmHg 58%
    19:00 +28°C° 0 mm 2 m/S 742 mmHg 63%
    20:00 +26°C° 0 mm 2 m/S 742 mmHg 68%
    21:00 +25°C° 0 mm 2 m/S 742 mmHg 72%
    22:00 +24°C° 0 mm 2 m/S 742 mmHg 74%
    23:00 +23°C° 0 mm 2 m/S 742 mmHg 77%
    Mehr zeigen